#timestamp,LO_Frequency,Hit,StdDev 
1638075615.6,286046999.9,N
1638075635.4,286047001.0,N
1638075655.2,286047000.7,N
1638075675.1,286047000.5,N
1638075676.0,286047000.5,N
1638075695.8,286047002.1,N
1638075715.6,286047003.5,N
1638075735.5,286047005.4,Y
1638075755.3,286047003.6,P
1638075775.1,286047003.0,N
1638075795.9,286047001.3,N
1638075815.7,286047006.0,Y
1638075835.5,286047000.7,P
1638075855.4,286046999.8,N
1638075875.2,286047001.9,N
1638075895.0,286047001.5,N
1638075926.0,286047002.6,E
1638075935.9,286047002.2,N
1638075955.7,286047001.6,P
1638075975.6,286047003.7,P
1638075995.4,286047003.6,Y
1638076015.2,286047002.8,P
1638076035.1,286047002.9,P
1638076036.0,286047002.9,P
1638076055.8,286047004.0,Y
1638076075.6,286047000.8,P
1638076095.5,286047000.6,N
1638076115.3,286047002.8,N
1638076135.1,286047000.2,N
1638076155.9,286047002.3,N
1638076175.7,286046999.8,N
1638076195.5,286047001.3,N
1638076215.4,286047002.3,N
1638076235.2,286047001.6,N
1638076255.0,286047002.2,N
1638076255.9,286047002.2,N
1638076275.8,286047005.6,Y
1638076295.6,286047001.5,P
1638076315.4,286047004.4,P
1638076335.3,286046999.7,N
1638076355.1,286047001.6,N
1638076375.8,286047002.3,N
1638076395.7,286046999.7,N
1638076415.5,286047001.3,N
1638076435.3,286047005.5,Y
1638076455.2,286047002.9,P
1638076475.0,286047003.2,P
1638076475.9,286047003.2,P
1638076495.7,286047003.2,Y
1638076515.6,286047002.7,P
1638076535.4,286046999.9,P
1638076555.2,286047002.5,N
1638076575.1,286047002.5,N
1638076576.0,286047002.5,N
1638076595.8,286047004.3,Y
1638076615.6,286047002.4,P
1638076635.5,286047000.4,N
1638076655.3,286047002.4,N
1638076675.2,286047002.8,Y
1638076695.9,286047000.0,P
1638076715.7,286047000.1,N
1638076735.5,286047000.1,N
1638076755.4,286047001.5,N
1638076775.2,286047004.2,Y
1638076795.0,286047001.8,P
1638076796.0,286047001.8,P
1638076815.8,286047004.0,P
1638076835.6,286047001.3,N
1638076855.5,286047004.3,Y
1638076875.3,286047002.2,P
1638076895.1,286047002.7,P
1638076915.9,286047003.9,P
1638076935.7,286047004.4,Y
1638076955.5,286046999.8,P
1638076975.4,286047003.8,N
1638076995.2,286047002.1,N
1638077015.0,286047001.9,N
1638077015.9,286047001.9,N
1638077035.8,286047003.5,N
1638077055.6,286047004.1,Y
1638077075.4,286046998.3,P
1638077095.3,286047001.1,N
1638077115.1,286047000.2,N
1638077116.0,286047000.2,N
1638077135.8,286047002.2,N
1638077155.7,286047000.1,N
1638077175.5,286047002.4,N
1638077195.3,286047002.3,N
1638077215.2,286047001.3,N
1638077235.9,286047003.6,N
1638077255.7,286047002.9,N
1638077275.6,286047004.2,N
1638077295.4,286047003.4,N
1638077315.2,286047005.8,Y
1638077335.1,286047003.8,P
1638077336.0,286047003.8,P
1638077355.8,286047002.9,N
1638077375.6,286047002.9,Y
1638077395.5,286047004.4,P
1638077415.3,286047003.7,P
1638077435.1,286047003.8,P
1638077455.9,286047003.3,Y
1638077475.7,286046999.9,P
1638077495.5,286047000.2,N
1638077515.4,286047004.4,N
1638077535.2,286047003.7,N
1638077555.0,286047002.9,N
1638077555.9,286047002.9,N
1638077575.8,286047003.2,N
1638077595.6,286047005.7,Y
1638077615.4,286047002.0,P
1638077635.3,286047002.1,P
1638077655.1,286047001.9,P
1638077675.9,286047003.5,Y
1638077695.7,286047003.8,P
1638077715.5,286047003.1,P
1638077735.3,286047001.9,N
1638077755.2,286047001.5,N
1638077775.0,286047001.5,N
1638077775.9,286047001.5,N
1638077795.8,286047003.8,Y
1638077815.6,286046999.9,P
1638077835.4,286047000.9,N
1638077855.3,286047002.7,N
1638077875.1,286046998.1,N
1638077876.0,286046998.1,N
1638077895.8,286047001.0,N
1638077915.7,286047000.3,N
1638077935.5,286047002.6,N
1638077955.3,286046999.8,N
1638077975.2,286047002.4,N
1638077995.9,286047001.5,N
1638078015.7,286047002.3,N
1638078035.6,286047002.2,N
1638078055.4,286046999.9,N
1638078075.2,286047000.7,N
1638078095.1,286047000.1,N
1638078096.0,286047000.1,N
1638078115.8,286047000.3,N
1638078135.6,286047001.0,N
1638078155.5,286047002.4,N
1638078175.3,286047001.7,N
1638078195.1,286047002.5,N
1638078215.9,286047002.3,N
1638078235.7,286047000.8,N
1638078255.5,286046999.8,N
1638078275.4,286047002.5,N
1638078295.2,286047001.7,N
1638078315.0,286047001.9,N
1638078315.9,286047001.9,N
1638078335.8,286047002.8,N
1638078355.6,286046999.7,N
1638078375.4,286047000.3,N
1638078395.3,286047000.4,N
1638078415.1,286047001.0,N
1638078416.0,286047001.0,N
1638078435.8,286046998.2,N
1638078455.7,286046999.0,N
1638078475.5,286046998.2,N
1638078495.3,286047000.9,N
1638078515.2,286047001.0,N
1638078535.9,286047000.1,N
1638078555.7,286047002.4,N
1638078575.6,286047001.0,N
1638078595.4,286047000.9,N
1638078615.2,286047000.7,N
1638078635.1,286046998.2,N
1638078636.0,286046998.2,N
1638078655.8,286047000.6,N
1638078675.6,286046998.7,N
1638078695.5,286046998.4,N
1638078715.3,286046998.9,N
1638078735.1,286046997.1,N
1638078755.9,286046997.4,N
1638078775.7,286046994.9,Y
1638078795.5,286046995.2,P
1638078815.4,286046995.8,N
1638078835.2,286046995.3,N
1638078855.0,286046995.7,N
1638078855.9,286046995.7,N
1638078875.8,286046993.8,Y
1638078895.6,286046998.4,P
1638078915.4,286046998.1,N
1638078935.3,286047000.8,N
1638078955.1,286046998.3,N
1638078956.0,286046998.3,N
1638078975.8,286046998.8,N
1638078995.7,286046997.8,N
1638079015.5,286046999.2,N
1638079035.3,286046999.2,N
1638079055.2,286046998.6,N
1638079075.9,286046998.8,N
1638079095.7,286046997.7,N
1638079115.6,286046996.9,Y
1638079135.4,286046996.5,P
1638079155.2,286046999.3,N
1638079175.1,286046999.6,N
1638079176.0,286046999.6,N
1638079195.8,286046997.1,N
